TimeEST,TemperatureF,Dew PointF,Humidity,Sea Level PressureIn,VisibilityMPH,Wind Direction,Wind SpeedMPH,Gust SpeedMPH,PrecipitationIn,Events,Conditions,WindDirDegrees,DateUTC
12:15 AM,35.6,24.8,65,29.63,10.0,West,5.8,-,N/A,,Overcast,270,2013-11-08 05:15:00
12:35 AM,35.6,24.8,65,29.63,10.0,West,5.8,-,N/A,,Mostly Cloudy,270,2013-11-08 05:35:00
12:55 AM,33.8,24.8,70,29.63,10.0,West,6.9,-,N/A,,Partly Cloudy,260,2013-11-08 05:55:00
1:15 AM,33.8,23.0,65,29.63,10.0,West,6.9,-,N/A,,Clear,260,2013-11-08 06:15:00
1:35 AM,30.2,24.8,80,29.63,10.0,West,8.1,-,N/A,,Clear,270,2013-11-08 06:35:00
1:55 AM,30.2,24.8,80,29.63,10.0,West,6.9,-,N/A,,Clear,270,2013-11-08 06:55:00
2:15 AM,33.8,24.8,70,29.63,10.0,West,9.2,-,N/A,,Mostly Cloudy,270,2013-11-08 07:15:00
2:35 AM,33.8,23.0,65,29.63,10.0,WSW,5.8,-,N/A,,Overcast,250,2013-11-08 07:35:00
2:55 AM,32.0,21.2,64,29.63,10.0,West,8.1,-,N/A,,Partly Cloudy,270,2013-11-08 07:55:00
3:15 AM,33.8,23.0,65,29.63,10.0,West,6.9,-,N/A,,Mostly Cloudy,280,2013-11-08 08:15:00
3:35 AM,33.8,23.0,65,29.64,10.0,West,8.1,-,N/A,,Overcast,280,2013-11-08 08:35:00
3:55 AM,33.8,24.8,70,29.64,10.0,West,8.1,-,N/A,,Overcast,270,2013-11-08 08:55:00
4:15 AM,33.8,24.8,70,29.65,10.0,WSW,6.9,-,N/A,,Overcast,250,2013-11-08 09:15:00
4:35 AM,33.8,23.0,65,29.65,10.0,West,6.9,-,N/A,,Overcast,260,2013-11-08 09:35:00
4:55 AM,33.8,24.8,70,29.65,10.0,WSW,6.9,-,N/A,,Overcast,240,2013-11-08 09:55:00
5:15 AM,33.8,23.0,65,29.64,10.0,WSW,5.8,-,N/A,,Mostly Cloudy,250,2013-11-08 10:15:00
5:35 AM,33.8,24.8,70,29.65,10.0,WSW,6.9,-,N/A,,Overcast,240,2013-11-08 10:35:00
5:55 AM,33.8,24.8,70,29.65,10.0,WSW,5.8,-,N/A,,Overcast,240,2013-11-08 10:55:00
6:15 AM,33.8,24.8,70,29.65,10.0,WSW,4.6,-,N/A,,Overcast,240,2013-11-08 11:15:00
6:35 AM,33.8,24.8,70,29.65,10.0,SW,6.9,-,N/A,,Overcast,230,2013-11-08 11:35:00
6:55 AM,33.8,24.8,70,29.65,10.0,WSW,6.9,-,N/A,,Mostly Cloudy,240,2013-11-08 11:55:00
7:15 AM,33.8,24.8,70,29.65,10.0,WSW,9.2,-,N/A,,Scattered Clouds,250,2013-11-08 12:15:00
7:35 AM,33.8,24.8,70,29.66,10.0,WSW,6.9,-,N/A,,Mostly Cloudy,240,2013-11-08 12:35:00
7:55 AM,33.8,24.8,70,29.66,10.0,WSW,6.9,-,N/A,,Overcast,240,2013-11-08 12:55:00
8:15 AM,33.8,24.8,70,29.65,10.0,WSW,6.9,-,N/A,,Overcast,240,2013-11-08 13:15:00
8:35 AM,35.6,24.8,65,29.66,10.0,WSW,8.1,-,N/A,,Overcast,250,2013-11-08 13:35:00
8:55 AM,35.6,23.0,60,29.65,10.0,West,9.2,-,N/A,,Mostly Cloudy,270,2013-11-08 13:55:00
9:15 AM,37.4,23.0,56,29.65,10.0,West,10.4,17.3,N/A,,Partly Cloudy,270,2013-11-08 14:15:00
9:35 AM,37.4,21.2,52,29.65,10.0,West,10.4,-,N/A,,Mostly Cloudy,260,2013-11-08 14:35:00
9:55 AM,37.4,21.2,52,29.66,10.0,West,8.1,-,N/A,,Overcast,280,2013-11-08 14:55:00
10:15 AM,37.4,21.2,52,29.66,10.0,West,13.8,-,N/A,,Overcast,270,2013-11-08 15:15:00
10:35 AM,37.4,21.2,52,29.66,10.0,West,11.5,-,N/A,,Overcast,280,2013-11-08 15:35:00
10:55 AM,37.4,21.2,52,29.65,10.0,West,11.5,16.1,N/A,,Mostly Cloudy,270,2013-11-08 15:55:00
11:15 AM,39.2,21.2,49,29.65,10.0,WNW,9.2,-,N/A,,Mostly Cloudy,290,2013-11-08 16:15:00
11:35 AM,39.2,21.2,49,29.64,10.0,West,8.1,-,N/A,,Overcast,270,2013-11-08 16:35:00
11:55 AM,39.2,19.4,45,29.64,10.0,West,12.7,19.6,N/A,,Overcast,280,2013-11-08 16:55:00
12:15 PM,39.2,17.6,42,29.64,10.0,West,12.7,20.7,N/A,,Overcast,280,2013-11-08 17:15:00
12:35 PM,39.2,19.4,45,29.64,10.0,West,17.3,23.0,N/A,,Overcast,270,2013-11-08 17:35:00
12:55 PM,41.0,19.4,42,29.63,10.0,West,17.3,23.0,N/A,,Overcast,260,2013-11-08 17:55:00
1:15 PM,39.2,17.6,42,29.63,10.0,West,15.0,19.6,N/A,,Mostly Cloudy,270,2013-11-08 18:15:00
1:35 PM,39.2,19.4,45,29.63,10.0,West,13.8,20.7,N/A,,Overcast,260,2013-11-08 18:35:00
1:55 PM,39.2,17.6,42,29.64,10.0,West,13.8,23.0,N/A,,Overcast,260,2013-11-08 18:55:00
2:15 PM,37.4,19.4,48,29.64,10.0,West,11.5,17.3,N/A,,Overcast,270,2013-11-08 19:15:00
2:35 PM,37.4,19.4,48,29.64,10.0,West,12.7,18.4,N/A,,Overcast,260,2013-11-08 19:35:00
2:55 PM,37.4,19.4,48,29.65,10.0,West,11.5,20.7,N/A,,Overcast,260,2013-11-08 19:55:00
3:15 PM,37.4,19.4,48,29.65,10.0,WSW,13.8,18.4,N/A,,Overcast,250,2013-11-08 20:15:00
3:35 PM,37.4,19.4,48,29.66,10.0,West,11.5,20.7,N/A,,Overcast,260,2013-11-08 20:35:00
3:55 PM,37.4,21.2,52,29.66,10.0,West,9.2,-,N/A,,Overcast,260,2013-11-08 20:55:00
4:15 PM,35.6,21.2,56,29.67,10.0,West,6.9,-,N/A,,Overcast,260,2013-11-08 21:15:00
4:35 PM,35.6,21.2,56,29.67,10.0,West,6.9,-,N/A,,Overcast,260,2013-11-08 21:35:00
4:55 PM,35.6,21.2,56,29.68,10.0,WSW,5.8,-,N/A,,Overcast,250,2013-11-08 21:55:00
5:15 PM,35.6,21.2,56,29.69,10.0,West,13.8,-,N/A,,Overcast,280,2013-11-08 22:15:00
5:35 PM,35.6,21.2,56,29.69,10.0,West,10.4,-,N/A,,Overcast,280,2013-11-08 22:35:00
5:55 PM,33.8,21.2,60,29.70,10.0,West,5.8,-,N/A,,Mostly Cloudy,270,2013-11-08 22:55:00
6:15 PM,33.8,23.0,65,29.70,8.0,WNW,8.1,-,N/A,,Mostly Cloudy,290,2013-11-08 23:15:00
6:35 PM,33.8,24.8,70,29.70,10.0,West,5.8,-,N/A,,Overcast,260,2013-11-08 23:35:00
6:55 PM,33.8,23.0,65,29.70,10.0,West,6.9,-,N/A,,Mostly Cloudy,270,2013-11-08 23:55:00
7:15 PM,33.8,21.2,60,29.70,10.0,West,9.2,-,N/A,,Partly Cloudy,270,2013-11-09 00:15:00
7:35 PM,33.8,21.2,60,29.71,10.0,West,8.1,-,N/A,,Clear,260,2013-11-09 00:35:00
7:55 PM,33.8,21.2,60,29.71,10.0,WSW,6.9,-,N/A,,Clear,250,2013-11-09 00:55:00
8:15 PM,33.8,21.2,60,29.71,10.0,SW,8.1,-,N/A,,Mostly Cloudy,230,2013-11-09 01:15:00
8:35 PM,32.0,21.2,64,29.72,10.0,SW,4.6,-,N/A,,Mostly Cloudy,230,2013-11-09 01:35:00
8:55 PM,32.0,21.2,64,29.72,10.0,WSW,3.5,-,N/A,,Partly Cloudy,250,2013-11-09 01:55:00
9:15 PM,32.0,21.2,64,29.72,10.0,West,9.2,-,N/A,,Clear,260,2013-11-09 02:15:00
9:35 PM,32.0,19.4,60,29.72,10.0,West,9.2,-,N/A,,Clear,260,2013-11-09 02:35:00
9:55 PM,32.0,19.4,60,29.72,10.0,West,10.4,-,N/A,,Clear,260,2013-11-09 02:55:00
10:15 PM,32.0,19.4,60,29.72,10.0,WSW,10.4,-,N/A,,Clear,250,2013-11-09 03:15:00
10:35 PM,32.0,19.4,60,29.72,10.0,WSW,6.9,-,N/A,,Clear,250,2013-11-09 03:35:00
10:55 PM,32.0,19.4,60,29.72,10.0,West,10.4,-,N/A,,Clear,260,2013-11-09 03:55:00
11:15 PM,32.0,19.4,60,29.72,10.0,West,9.2,-,N/A,,Clear,260,2013-11-09 04:15:00
11:35 PM,32.0,19.4,60,29.73,10.0,West,11.5,-,N/A,,Clear,270,2013-11-09 04:35:00
11:55 PM,32.0,19.4,60,29.73,10.0,West,10.4,-,N/A,,Scattered Clouds,260,2013-11-09 04:55:00